JAL34 RJOO-ROAH

Flight info

Callsign JAL34
Flight time 1h 40m
Altitude 40000
Route TIGER2 TIGER DCT MAIKO Y75 ONC Y525 IHEYA IHEYAN
Aircraft A35K/H-SDE2E3GHIJ3J4J5LM1ORWXY/LB1D1

Departure

Time 2026-04-28 10:40
Airport Osaka Itami International Airport (RJOO)

Arrival

Time 2026-04-28 12:20
Airport Naha International Airport (ROAH)
Time Latitude Longitude Altitude Speed Heading
2026-04-28 10:20 34.78810 135.44270 55 ft 0 kts 68°
2026-04-28 10:30 34.78808 135.44265 55 ft 0 kts 66°
2026-04-28 10:30 34.78805 135.44255 49 ft 2 kts 68°
2026-04-28 10:30 34.78799 135.44236 49 ft 2 kts 67°
2026-04-28 10:30 34.78792 135.44218 47 ft 2 kts 67°
2026-04-28 10:31 34.78786 135.44199 47 ft 2 kts 66°
2026-04-28 10:31 34.78779 135.44181 47 ft 2 kts 66°
2026-04-28 10:31 34.78772 135.44162 47 ft 2 kts 64°
2026-04-28 10:31 34.78765 135.44144 47 ft 2 kts 62°
2026-04-28 10:32 34.78757 135.44127 47 ft 2 kts 62°
2026-04-28 10:32 34.78754 135.44108 47 ft 2 kts 136°
2026-04-28 10:32 34.78767 135.44095 47 ft 2 kts 146°
2026-04-28 10:32 34.78780 135.44084 47 ft 2 kts 139°
2026-04-28 10:33 34.78791 135.44069 47 ft 2 kts 128°
2026-04-28 10:33 34.78796 135.44062 47 ft 0 kts 129°
2026-04-28 10:33 34.78795 135.44062 47 ft 0 kts 129°
2026-04-28 10:35 34.78752 135.44117 47 ft 20 kts 135°
2026-04-28 10:35 34.78646 135.44243 47 ft 22 kts 135°
2026-04-28 10:35 34.78512 135.44332 51 ft 23 kts 176°
2026-04-28 10:35 34.78348 135.44335 54 ft 23 kts 180°
2026-04-28 10:36 34.78184 135.44349 51 ft 25 kts 156°
2026-04-28 10:36 34.78048 135.44491 51 ft 26 kts 135°
2026-04-28 10:36 34.77923 135.44640 49 ft 26 kts 134°
2026-04-28 10:36 34.77795 135.44800 49 ft 27 kts 135°
2026-04-28 10:37 34.77659 135.44964 48 ft 28 kts 135°
2026-04-28 10:37 34.77517 135.45134 53 ft 29 kts 135°
2026-04-28 10:37 34.77425 135.45243 52 ft 2 kts 137°
2026-04-28 10:37 34.77403 135.45266 48 ft 6 kts 143°
2026-04-28 10:38 34.77358 135.45298 52 ft 9 kts 156°
2026-04-28 10:38 34.77291 135.45306 52 ft 11 kts 192°
2026-04-28 10:38 34.77231 135.45251 49 ft 11 kts 225°
2026-04-28 10:38 34.77233 135.45170 51 ft 11 kts 297°
2026-04-28 10:39 34.77254 135.45140 50 ft 0 kts 318°
2026-04-28 10:39 34.77256 135.45138 50 ft 2 kts 318°
2026-04-28 10:39 34.77366 135.45013 55 ft 57 kts 315°
2026-04-28 10:39 34.77815 135.44462 50 ft 125 kts 315°
2026-04-28 10:40 34.78556 135.43562 276 ft 162 kts 310°
2026-04-28 10:40 34.79372 135.42594 915 ft 169 kts 313°
2026-04-28 10:40 34.79884 135.41316 1477 ft 180 kts 276°
2026-04-28 10:40 34.79416 135.39904 1895 ft 191 kts 222°
2026-04-28 10:41 34.78206 135.39146 2280 ft 205 kts 205°
2026-04-28 10:41 34.76792 135.38595 2610 ft 223 kts 194°
2026-04-28 10:41 34.75180 135.38271 2915 ft 243 kts 191°
2026-04-28 10:41 34.73491 135.37934 3508 ft 250 kts 192°
2026-04-28 10:42 34.71746 135.37540 4141 ft 256 kts 193°
2026-04-28 10:42 34.69988 135.37105 4788 ft 262 kts 195°
2026-04-28 10:42 34.68198 135.36633 5405 ft 267 kts 197°
2026-04-28 10:42 34.66568 135.35801 5978 ft 266 kts 220°
2026-04-28 10:43 34.65475 135.34027 6609 ft 261 kts 253°
2026-04-28 10:43 34.65342 135.31902 7266 ft 258 kts 278°
2026-04-28 10:43 34.65633 135.29746 7943 ft 260 kts 281°
2026-04-28 10:43 34.65955 135.27613 8617 ft 263 kts 282°
2026-04-28 10:44 34.66397 135.25396 9326 ft 266 kts 284°
2026-04-28 10:44 34.66852 135.23221 10009 ft 269 kts 284°
2026-04-28 10:44 34.67312 135.20972 10453 ft 280 kts 284°
2026-04-28 10:44 34.67725 135.18600 10768 ft 294 kts 277°
2026-04-28 10:45 34.67600 135.16092 11072 ft 310 kts 257°
2026-04-28 10:45 34.66892 135.13536 11419 ft 323 kts 250°
2026-04-28 10:45 34.65948 135.11005 11849 ft 337 kts 246°
2026-04-28 10:45 34.64879 135.08479 12701 ft 341 kts 244°
2026-04-28 10:46 34.63763 135.05930 13632 ft 343 kts 244°
2026-04-28 10:46 34.62642 135.03342 14440 ft 346 kts 244°
2026-04-28 10:46 34.61540 135.00738 15245 ft 348 kts 245°
2026-04-28 10:46 34.60448 134.98123 16080 ft 350 kts 245°
2026-04-28 10:47 34.59257 134.95519 16911 ft 353 kts 243°
2026-04-28 10:47 34.57984 134.92928 17722 ft 357 kts 242°
2026-04-28 10:47 34.56690 134.90359 18480 ft 359 kts 242°
2026-04-28 10:47 34.55391 134.87779 19172 ft 361 kts 243°
2026-04-28 10:48 34.54062 134.85193 19897 ft 364 kts 240°
2026-04-28 10:48 34.52522 134.82713 20663 ft 368 kts 237°
2026-04-28 10:48 34.50916 134.80305 21393 ft 371 kts 236°
2026-04-28 10:48 34.49257 134.77908 22130 ft 373 kts 236°
2026-04-28 10:49 34.47557 134.75495 22867 ft 376 kts 236°
2026-04-28 10:49 34.45863 134.73106 23565 ft 378 kts 236°
2026-04-28 10:49 34.44131 134.70661 24144 ft 381 kts 236°
2026-04-28 10:49 34.42410 134.68206 24731 ft 384 kts 237°
2026-04-28 10:50 34.40688 134.65731 25320 ft 386 kts 237°
2026-04-28 10:50 34.38967 134.63253 25910 ft 389 kts 237°
2026-04-28 10:50 34.37211 134.60723 26512 ft 391 kts 238°
2026-04-28 10:50 34.35454 134.58198 27089 ft 394 kts 238°
2026-04-28 10:51 34.33685 134.55657 27680 ft 396 kts 238°
2026-04-28 10:51 34.31926 134.53135 28249 ft 399 kts 238°
2026-04-28 10:51 34.30116 134.50545 28830 ft 401 kts 238°
2026-04-28 10:51 34.28302 134.47950 29405 ft 403 kts 238°
2026-04-28 10:52 34.26488 134.45357 29937 ft 406 kts 238°
2026-04-28 10:52 34.24668 134.42753 30359 ft 409 kts 238°
2026-04-28 10:52 34.22830 134.40128 30811 ft 412 kts 238°
2026-04-28 10:52 34.20970 134.37475 31241 ft 414 kts 238°
2026-04-28 10:53 34.19092 134.34801 31682 ft 416 kts 238°
2026-04-28 10:53 34.17214 134.32126 32085 ft 417 kts 238°
2026-04-28 10:53 34.15339 134.29458 32427 ft 420 kts 237°
2026-04-28 10:53 34.13468 134.26804 32932 ft 416 kts 238°
2026-04-28 10:54 34.11585 134.24140 33460 ft 413 kts 237°
2026-04-28 10:54 34.09745 134.21539 33895 ft 413 kts 237°
2026-04-28 10:54 34.07878 134.18890 34266 ft 413 kts 237°
2026-04-28 10:54 34.05993 134.16215 34651 ft 413 kts 237°
2026-04-28 10:55 34.04138 134.13583 35018 ft 413 kts 237°
2026-04-28 10:55 34.02287 134.10955 35371 ft 413 kts 237°
2026-04-28 10:55 34.00415 134.08304 35784 ft 412 kts 237°
2026-04-28 10:55 33.98576 134.05702 36164 ft 411 kts 237°
2026-04-28 10:56 33.97242 134.03820 36444 ft 411 kts 237°
2026-04-28 10:56 33.95496 134.01358 36795 ft 411 kts 237°
2026-04-28 10:56 33.93673 133.98791 37071 ft 411 kts 237°
2026-04-28 10:57 33.91796 133.96146 37447 ft 410 kts 237°
2026-04-28 10:57 33.89946 133.93539 37807 ft 408 kts 236°
2026-04-28 10:57 33.88099 133.90941 38058 ft 408 kts 237°
2026-04-28 10:57 33.86256 133.88349 38291 ft 408 kts 237°
2026-04-28 10:58 33.84402 133.85745 38494 ft 409 kts 237°
2026-04-28 10:58 33.82569 133.83143 38791 ft 406 kts 238°
2026-04-28 10:58 33.80879 133.80434 39073 ft 403 kts 240°
2026-04-28 10:58 33.79255 133.77679 39241 ft 403 kts 241°
2026-04-28 10:59 33.77661 133.74911 39447 ft 403 kts 242°
2026-04-28 10:59 33.76099 133.72166 39678 ft 403 kts 242°
2026-04-28 10:59 33.74514 133.69374 39883 ft 404 kts 241°
2026-04-28 11:00 33.71329 133.63772 39968 ft 405 kts 241°
2026-04-28 11:00 33.68139 133.58189 39982 ft 405 kts 241°
2026-04-28 11:01 33.64941 133.52634 39976 ft 404 kts 241°
2026-04-28 11:01 33.61762 133.47118 39976 ft 405 kts 241°
2026-04-28 11:02 33.58566 133.41554 39973 ft 406 kts 241°
2026-04-28 11:02 33.55346 133.35964 39969 ft 407 kts 241°
2026-04-28 11:03 33.52118 133.30378 39981 ft 407 kts 241°
2026-04-28 11:03 33.48891 133.24798 39987 ft 407 kts 241°
2026-04-28 11:04 33.45645 133.19219 39982 ft 410 kts 240°
2026-04-28 11:04 33.42381 133.13590 39977 ft 417 kts 241°
2026-04-28 11:05 33.39046 133.07839 39987 ft 419 kts 240°
2026-04-28 11:05 33.35723 133.02139 39992 ft 420 kts 240°
2026-04-28 11:06 33.32386 132.96404 39991 ft 420 kts 240°
2026-04-28 11:06 33.29047 132.90668 39989 ft 420 kts 240°
2026-04-28 11:07 33.25691 132.84939 39992 ft 420 kts 240°
2026-04-28 11:07 33.22331 132.79205 39996 ft 421 kts 240°
2026-04-28 11:08 33.18996 132.73517 39992 ft 421 kts 240°
2026-04-28 11:08 33.15636 132.67806 39991 ft 421 kts 240°
2026-04-28 11:09 33.12260 132.62070 39985 ft 421 kts 240°
2026-04-28 11:09 33.08902 132.56364 39989 ft 422 kts 240°
2026-04-28 11:10 33.06077 132.51571 39986 ft 422 kts 240°
2026-04-28 11:10 33.02695 132.45847 39998 ft 422 kts 240°
2026-04-28 11:11 32.99107 132.40311 39994 ft 429 kts 233°
2026-04-28 11:11 32.95810 132.36848 39984 ft 440 kts 223°
2026-04-28 11:12 32.91278 132.33679 39991 ft 449 kts 216°
2026-04-28 11:12 32.85665 132.30342 39990 ft 451 kts 214°
2026-04-28 11:13 32.80016 132.27064 39991 ft 452 kts 214°
2026-04-28 11:13 32.74379 132.23743 39995 ft 452 kts 215°
2026-04-28 11:14 32.68745 132.20388 39995 ft 453 kts 215°
2026-04-28 11:14 32.63170 132.17011 39993 ft 451 kts 217°
2026-04-28 11:15 32.57798 132.13218 39996 ft 448 kts 219°
2026-04-28 11:15 32.52508 132.09298 39996 ft 448 kts 219°
2026-04-28 11:16 32.47183 132.05433 39995 ft 449 kts 218°
2026-04-28 11:16 32.41850 132.01648 40000 ft 450 kts 218°
2026-04-28 11:17 32.36462 131.97842 39999 ft 450 kts 218°
2026-04-28 11:17 32.31073 131.94039 39995 ft 450 kts 218°
2026-04-28 11:18 32.25722 131.90266 39998 ft 450 kts 218°
2026-04-28 11:18 32.20334 131.86472 39996 ft 450 kts 218°
2026-04-28 11:19 32.14964 131.82696 40004 ft 450 kts 218°
2026-04-28 11:19 32.09552 131.78896 40000 ft 451 kts 218°
2026-04-28 11:20 32.04152 131.75110 40007 ft 451 kts 217°
2026-04-28 11:20 31.98779 131.71349 40000 ft 452 kts 217°
2026-04-28 11:21 31.93372 131.67567 39998 ft 452 kts 217°
2026-04-28 11:21 31.87957 131.63784 39996 ft 453 kts 217°
2026-04-28 11:22 31.82534 131.60004 39995 ft 453 kts 217°
2026-04-28 11:22 31.77119 131.56234 39994 ft 453 kts 217°
2026-04-28 11:23 31.71683 131.52454 40001 ft 454 kts 217°
2026-04-28 11:23 31.66279 131.48702 40006 ft 454 kts 217°
2026-04-28 11:24 31.60818 131.44914 40017 ft 454 kts 217°
2026-04-28 11:24 31.55366 131.41138 40028 ft 455 kts 217°
2026-04-28 11:25 31.49945 131.37389 40044 ft 455 kts 217°
2026-04-28 11:25 31.44496 131.33627 40036 ft 455 kts 217°
2026-04-28 11:26 31.39030 131.29857 40043 ft 455 kts 217°
2026-04-28 11:26 31.33566 131.26093 40042 ft 456 kts 217°
2026-04-28 11:27 31.28098 131.22332 40042 ft 456 kts 217°
2026-04-28 11:27 31.22623 131.18570 40048 ft 457 kts 217°
2026-04-28 11:28 31.17168 131.14828 40051 ft 457 kts 217°
2026-04-28 11:28 31.11672 131.11064 40050 ft 458 kts 217°
2026-04-28 11:29 31.06175 131.07294 40011 ft 459 kts 216°
2026-04-28 11:29 31.00649 131.03507 40059 ft 467 kts 216°
2026-04-28 11:30 30.94995 130.99656 40054 ft 471 kts 216°
2026-04-28 11:30 30.86500 130.93883 40055 ft 471 kts 216°
2026-04-28 11:31 30.80828 130.90029 40050 ft 472 kts 216°
2026-04-28 11:31 30.75159 130.86179 40054 ft 472 kts 216°
2026-04-28 11:32 30.69483 130.82331 40048 ft 472 kts 216°
2026-04-28 11:32 30.63807 130.78487 40052 ft 472 kts 216°
2026-04-28 11:33 30.58156 130.74666 40053 ft 473 kts 216°
2026-04-28 11:33 30.52453 130.70816 40058 ft 473 kts 216°
2026-04-28 11:34 30.46793 130.66999 40068 ft 474 kts 216°
2026-04-28 11:34 30.41092 130.63160 40063 ft 474 kts 216°
2026-04-28 11:35 30.35384 130.59322 40072 ft 474 kts 216°
2026-04-28 11:35 30.29681 130.55500 40069 ft 474 kts 215°
2026-04-28 11:36 30.23971 130.51676 40064 ft 474 kts 215°
2026-04-28 11:36 30.18253 130.47848 40065 ft 475 kts 215°
2026-04-28 11:37 30.12555 130.44039 40065 ft 476 kts 215°
2026-04-28 11:37 30.06820 130.40213 40068 ft 476 kts 215°
2026-04-28 11:38 30.01075 130.36386 40068 ft 476 kts 215°
2026-04-28 11:38 29.95329 130.32567 40068 ft 477 kts 215°
2026-04-28 11:39 29.89608 130.28768 40067 ft 477 kts 215°
2026-04-28 11:39 29.83842 130.24945 40068 ft 477 kts 215°
2026-04-28 11:40 29.78074 130.21126 40067 ft 478 kts 215°
2026-04-28 11:40 29.72298 130.17307 40066 ft 478 kts 215°
2026-04-28 11:41 29.66559 130.13516 40066 ft 479 kts 215°
2026-04-28 11:41 29.60764 130.09696 40064 ft 479 kts 215°
2026-04-28 11:42 29.54978 130.05891 40069 ft 480 kts 215°
2026-04-28 11:42 29.49180 130.02080 40070 ft 480 kts 215°
2026-04-28 11:43 29.43365 129.98260 40071 ft 481 kts 215°
2026-04-28 11:43 29.37557 129.94451 40070 ft 481 kts 215°
2026-04-28 11:44 29.31768 129.90661 40073 ft 482 kts 215°
2026-04-28 11:44 29.25937 129.86849 40072 ft 482 kts 215°
2026-04-28 11:45 29.20127 129.83056 40069 ft 483 kts 215°
2026-04-28 11:45 29.14296 129.79254 40071 ft 483 kts 214°
2026-04-28 11:46 29.08444 129.75443 40073 ft 483 kts 214°
2026-04-28 11:46 29.02587 129.71634 40072 ft 484 kts 214°
2026-04-28 11:47 28.96735 129.67833 40074 ft 484 kts 214°
2026-04-28 11:47 28.90858 129.64021 40075 ft 485 kts 214°
2026-04-28 11:48 28.85021 129.60240 40072 ft 485 kts 214°
2026-04-28 11:48 28.79144 129.56438 40070 ft 485 kts 214°
2026-04-28 11:49 28.73257 129.52635 40072 ft 486 kts 214°
2026-04-28 11:49 28.67374 129.48839 40070 ft 486 kts 214°
2026-04-28 11:50 28.61507 129.45059 40070 ft 486 kts 214°
2026-04-28 11:50 28.55611 129.41264 40072 ft 487 kts 214°
2026-04-28 11:51 28.49703 129.37467 40075 ft 487 kts 214°
2026-04-28 11:51 28.43794 129.33674 40077 ft 488 kts 214°
2026-04-28 11:52 28.37882 129.29884 40089 ft 488 kts 214°
2026-04-28 11:52 28.31964 129.26095 40085 ft 488 kts 214°
2026-04-28 11:53 28.26039 129.22307 40080 ft 488 kts 214°
2026-04-28 11:53 28.20151 129.18547 40080 ft 489 kts 214°
2026-04-28 11:54 28.14209 129.14757 40085 ft 489 kts 214°
2026-04-28 11:54 28.08277 129.10979 40081 ft 490 kts 214°
2026-04-28 11:55 28.02331 129.07197 40080 ft 490 kts 214°
2026-04-28 11:55 27.96409 129.03434 39991 ft 489 kts 214°
2026-04-28 11:56 27.93462 129.01567 39757 ft 483 kts 214°
2026-04-28 11:56 27.90537 128.99714 39520 ft 481 kts 214°
2026-04-28 11:56 27.87615 128.97862 39284 ft 481 kts 214°
2026-04-28 11:56 27.84689 128.96010 39051 ft 482 kts 214°
2026-04-28 11:57 27.81760 128.94155 38825 ft 483 kts 214°
2026-04-28 11:57 27.78830 128.92300 38314 ft 481 kts 214°
2026-04-28 11:57 27.75918 128.90456 37696 ft 479 kts 214°
2026-04-28 11:57 27.73993 128.89237 37263 ft 479 kts 214°
2026-04-28 11:58 27.71085 128.87395 36610 ft 478 kts 213°
2026-04-28 11:58 27.68190 128.85563 35952 ft 479 kts 213°
2026-04-28 11:58 27.65270 128.83718 35266 ft 479 kts 213°
2026-04-28 11:58 27.62381 128.81894 34560 ft 480 kts 213°
2026-04-28 11:59 27.59443 128.80040 33735 ft 483 kts 212°
2026-04-28 11:59 27.55531 128.77580 32625 ft 485 kts 212°
2026-04-28 11:59 27.53534 128.76326 32061 ft 486 kts 212°
2026-04-28 11:59 27.49624 128.73874 30969 ft 487 kts 212°
2026-04-28 12:00 27.47619 128.72617 30411 ft 487 kts 212°
2026-04-28 12:00 27.44805 128.70536 29544 ft 482 kts 221°
2026-04-28 12:00 27.42491 128.67918 28884 ft 473 kts 233°
2026-04-28 12:00 27.40614 128.64913 28288 ft 466 kts 238°
2026-04-28 12:01 27.38894 128.61832 27703 ft 461 kts 240°
2026-04-28 12:01 27.37270 128.58746 27118 ft 455 kts 240°
2026-04-28 12:01 27.35696 128.55677 26536 ft 451 kts 241°
2026-04-28 12:01 27.34141 128.52639 25976 ft 446 kts 241°
2026-04-28 12:02 27.32591 128.49629 25418 ft 442 kts 240°
2026-04-28 12:02 27.31049 128.46664 24847 ft 438 kts 240°
2026-04-28 12:02 27.29508 128.43724 24287 ft 434 kts 240°
2026-04-28 12:02 27.27980 128.40823 23745 ft 430 kts 240°
2026-04-28 12:03 27.26455 128.37938 23122 ft 426 kts 240°
2026-04-28 12:03 27.24951 128.35097 22550 ft 420 kts 240°
2026-04-28 12:03 27.23463 128.32288 22013 ft 415 kts 240°
2026-04-28 12:03 27.21997 128.29522 21442 ft 410 kts 240°
2026-04-28 12:04 27.20547 128.26787 20900 ft 405 kts 240°
2026-04-28 12:04 27.19115 128.24087 20350 ft 401 kts 240°
2026-04-28 12:04 27.17707 128.21432 19811 ft 397 kts 240°
2026-04-28 12:04 27.16299 128.18779 19262 ft 394 kts 240°
2026-04-28 12:05 27.14896 128.16136 18721 ft 391 kts 239°
2026-04-28 12:05 27.13504 128.13517 18130 ft 388 kts 239°
2026-04-28 12:05 27.12140 128.10953 17533 ft 385 kts 239°
2026-04-28 12:05 27.10772 128.08379 16976 ft 382 kts 239°
2026-04-28 12:06 27.09412 128.05826 16390 ft 379 kts 239°
2026-04-28 12:06 27.08063 128.03296 15808 ft 376 kts 239°
2026-04-28 12:06 27.06725 128.00786 15244 ft 374 kts 239°
2026-04-28 12:06 27.05393 127.98291 14670 ft 373 kts 239°
2026-04-28 12:07 27.04057 127.95790 14085 ft 373 kts 239°
2026-04-28 12:07 27.02725 127.93296 13470 ft 372 kts 239°
2026-04-28 12:07 27.01224 127.90952 12841 ft 370 kts 227°
2026-04-28 12:07 26.99214 127.89168 12228 ft 369 kts 212°
2026-04-28 12:08 26.96959 127.87818 11647 ft 366 kts 208°
2026-04-28 12:08 26.94719 127.86572 11447 ft 352 kts 207°
2026-04-28 12:08 26.92599 127.85392 11331 ft 337 kts 208°
2026-04-28 12:08 26.90546 127.84241 11207 ft 322 kts 208°
2026-04-28 12:09 26.88575 127.83130 11081 ft 309 kts 208°
2026-04-28 12:09 26.86696 127.82067 10955 ft 297 kts 208°
2026-04-28 12:09 26.84897 127.81049 10829 ft 285 kts 208°
2026-04-28 12:09 26.83149 127.80057 10661 ft 276 kts 208°
2026-04-28 12:10 26.81442 127.79087 10345 ft 274 kts 208°
2026-04-28 12:10 26.79744 127.78122 10022 ft 272 kts 208°
2026-04-28 12:10 26.78063 127.77167 9688 ft 280 kts 208°
2026-04-28 12:10 26.76305 127.76166 9417 ft 285 kts 208°
2026-04-28 12:11 26.74534 127.75157 9075 ft 285 kts 208°
2026-04-28 12:11 26.72763 127.74146 8665 ft 284 kts 208°
2026-04-28 12:11 26.71013 127.73144 8325 ft 281 kts 208°
2026-04-28 12:11 26.69269 127.72150 7989 ft 280 kts 208°
2026-04-28 12:12 26.67536 127.71165 7650 ft 279 kts 208°
2026-04-28 12:12 26.65808 127.70192 7331 ft 277 kts 208°
2026-04-28 12:12 26.64088 127.69216 6999 ft 276 kts 208°
2026-04-28 12:12 26.62404 127.68260 6681 ft 275 kts 207°
2026-04-28 12:13 26.60703 127.67295 6347 ft 273 kts 207°
2026-04-28 12:13 26.59006 127.66338 6010 ft 273 kts 207°
2026-04-28 12:13 26.57308 127.65378 5679 ft 272 kts 207°
2026-04-28 12:13 26.55620 127.64422 5349 ft 271 kts 207°
2026-04-28 12:14 26.53904 127.63551 5018 ft 271 kts 198°
2026-04-28 12:14 26.52055 127.63145 4695 ft 272 kts 185°
2026-04-28 12:14 26.50171 127.63104 4388 ft 271 kts 178°
2026-04-28 12:14 26.48309 127.63199 3995 ft 271 kts 177°
2026-04-28 12:15 26.46429 127.63307 3596 ft 270 kts 175°
2026-04-28 12:15 26.44564 127.63423 3267 ft 267 kts 176°
2026-04-28 12:15 26.42712 127.63529 2930 ft 266 kts 176°
2026-04-28 12:15 26.40866 127.63623 2673 ft 262 kts 176°
2026-04-28 12:16 26.39082 127.63701 2530 ft 251 kts 177°
2026-04-28 12:16 26.37368 127.63770 2398 ft 241 kts 177°
2026-04-28 12:16 26.35740 127.63836 2264 ft 227 kts 177°
2026-04-28 12:16 26.34235 127.63898 2197 ft 202 kts 176°
2026-04-28 12:17 26.32900 127.63957 2132 ft 182 kts 177°
2026-04-28 12:17 26.31709 127.64011 2022 ft 165 kts 176°
2026-04-28 12:17 26.30632 127.64064 1896 ft 148 kts 174°
2026-04-28 12:17 26.29630 127.64118 1720 ft 141 kts 174°
2026-04-28 12:18 26.28653 127.64166 1492 ft 139 kts 175°
2026-04-28 12:18 26.27684 127.64211 1367 ft 140 kts 175°
2026-04-28 12:18 26.26708 127.64256 1167 ft 139 kts 175°
2026-04-28 12:18 26.25742 127.64301 986 ft 138 kts 174°
2026-04-28 12:19 26.24786 127.64346 804 ft 137 kts 175°
2026-04-28 12:19 26.23836 127.64390 623 ft 137 kts 174°
2026-04-28 12:19 26.22888 127.64434 426 ft 137 kts 174°
2026-04-28 12:19 26.21938 127.64480 247 ft 136 kts 174°
2026-04-28 12:20 26.21003 127.64513 88 ft 136 kts 176°
2026-04-28 12:20 26.20107 127.64556 23 ft 110 kts 175°
2026-04-28 12:20 26.19548 127.64591 21 ft 56 kts 178°
2026-04-28 12:20 26.19353 127.64627 27 ft 21 kts 156°
2026-04-28 12:21 26.19227 127.64698 25 ft 20 kts 142°
2026-04-28 12:21 26.19233 127.64799 23 ft 11 kts 23°
2026-04-28 12:21 26.19314 127.64806 24 ft 13 kts 358°
2026-04-28 12:21 26.19416 127.64802 23 ft 16 kts 359°
2026-04-28 12:22 26.19539 127.64799 24 ft 19 kts 359°
2026-04-28 12:22 26.19673 127.64791 24 ft 21 kts 358°
2026-04-28 12:22 26.19825 127.64784 25 ft 23 kts 358°
2026-04-28 12:22 26.19863 127.64781 23 ft 1 kts 356°
2026-04-28 12:23 26.19936 127.64776 24 ft 20 kts 357°
2026-04-28 12:23 26.20089 127.64772 26 ft 23 kts 357°
2026-04-28 12:23 26.20218 127.64769 26 ft 18 kts 356°
2026-04-28 12:23 26.20348 127.64760 25 ft 19 kts 356°
2026-04-28 12:24 26.20462 127.64752 26 ft 16 kts 357°
2026-04-28 12:24 26.20584 127.64747 24 ft 19 kts 358°
2026-04-28 12:24 26.20722 127.64741 25 ft 18 kts 357°
2026-04-28 12:24 26.20816 127.64737 25 ft 14 kts 357°
2026-04-28 12:25 26.20921 127.64732 25 ft 16 kts 357°
2026-04-28 12:25 26.21034 127.64762 26 ft 17 kts 38°
2026-04-28 12:25 26.21071 127.64872 30 ft 12 kts 90°
2026-04-28 12:25 26.21073 127.64934 27 ft 2 kts 88°
2026-04-28 12:26 26.21074 127.64953 27 ft 4 kts 88°
2026-04-28 12:26 26.21074 127.64961 27 ft 1 kts 88°
2026-04-28 12:26 26.21074 127.64969 27 ft 0 kts 88°